Regional Weather Roundup
Issued by NWS San Diego, CA

Home | Current Version | Previous Version | Text Only | Print | Product List | Glossary On
Versions: 1 2 3 4 5 6 7 8 9 10 11 12 13 14 15 16 17 18 19 20 21 22 23 24 25 26 27
000
ASUS46 KSGX 251611
RWRSGX

SAN DIEGO HOURLY WEATHER ROUNDUP
NATIONAL WEATHER SERVICE SAN DIEGO CA
900 AM PDT SAT MAR 25 2017

NOTE: "FAIR" INDICATES FEW OR NO CLOUDS BELOW 12,000 FEET WITH NO
SIGNIFICANT WEATHER AND/OR OBSTRUCTIONS TO VISIBILITY.

CAZ042-043-060-061-PZZ750-775-251700-

GREATER SAN DIEGO AREA

CITY           SKY/WX    TMP DP  RH WIND       PRES   REMARKS
SAN DIEGO AP   MOSUNNY   61  51  70 VRB3      30.16S
NATIONAL CITY    N/A     58  54  85 NE1       30.15S
CHULA VISTA      N/A     58  53  81 E1        30.08R
IMPERIAL BEACH MOSUNNY   61  52  72 NE6       30.16R
BROWN FIELD    PTSUNNY   57  51  80 NE3       30.15R
MIRAMAR MCAS   MOSUNNY   62  52  69 NW5       30.15R
MONTGOMERY FLD PTSUNNY   58  50  75 NW6       30.15R

$$

NORTH SAN DIEGO COUNTY

CITY           SKY/WX    TMP DP  RH WIND       PRES   REMARKS
CAMP PENDLETON PTSUNNY   54  51  90 CALM      30.15R
OCEANSIDE AP   CLOUDY    56  51  84 CALM      30.14R
OCEANSIDE HBR    N/A     55  51  85 SE3       30.17R
VISTA            N/A     54  48  82 CALM      30.13R
CARLSBAD       CLOUDY    58  51  78 N5        30.14R
DEL MAR          N/A     57  55  94 CALM      30.17R
LA JOLLA SCRIP   N/A     58  54  88 W1        30.14S
FALLBROOK        N/A     55  54  97 CALM      30.13R
ESCONDIDO        N/A     58  51  78 N3        30.16S
SAN MARCOS       N/A     57  51  80 N7        30.16R
POWAY            N/A     59  52  77 CALM      30.17R

$$

EAST SAN DIEGO COUNTY

CITY           SKY/WX    TMP DP  RH WIND       PRES   REMARKS
RAMONA         PTSUNNY   53  50  89 NW3       30.14R
SANTEE LAKES     N/A     55  50  86 CALM      30.15R
LA MESA          N/A     55  51  86 CALM      30.09R
JAMUL            N/A     55  51  87 CALM      30.16R
DESCANSO N       N/A     48  38  69 E6        30.08R
CAMPO            N/A     50  44  80 S6        30.08S

$$

ORANGE COUNTY AND THE LOS ANGELES BASIN

CITY           SKY/WX    TMP DP  RH WIND       PRES   REMARKS
JOHN WAYNE AP  CLOUDY    60  52  74 S3        30.13S
LAKE FOREST FR   N/A     56  47  71 CALM      30.05R
HUNTINGTON BCH   N/A     60  55  84 CALM      30.15S
LOS ALAMITOS   CLOUDY    58  52  79 CALM      30.13R
FULLERTON      CLOUDY    60  53  77 CALM      30.13R
LONG BEACH     PTSUNNY   60  51  72 CALM      30.13S
L.A. AP        PTSUNNY   59  53  80 W10       30.13S
L.A. DOWNTOWN  MOSUNNY   61  51  70 CALM      30.12R

$$

THE INLAND EMPIRE

CITY           SKY/WX    TMP DP  RH WIND       PRES   REMARKS
CORONA         SUNNY     57  49  74 SE6       30.14R
CHINO          PTSUNNY   57  50  77 CALM      30.15R
ONTARIO        PTSUNNY   54  49  83 W5        30.13S
SAN BERNARDINO PTSUNNY   55  46  71 CALM      30.14R
RIVERSIDE AP   MOSUNNY   55  49  80 W5        30.13S
MORENO VALLEY    N/A     54  53  95 SW1       28.22S
MARCH ARB      MOSUNNY   54  52  94 NW3       30.12S
HORSETHIEF CYN   N/A     54  44  70 E2        30.14R
PERRIS           N/A     52  50  95 W2        30.14F
HEMET EAST       N/A     51  42  71 CALM      30.17R
FRENCH VALLEY  FAIR      52  46  82 CALM      30.14R
TEMECULA         N/A     52  50  92 N2        30.20R

$$

SAN BERNARDINO AND RIVERSIDE COUNTY MOUNTAINS

CITY           SKY/WX    TMP DP  RH WIND       PRES   REMARKS
BIG BEAR AP    SUNNY     39  30  70 W12       30.11S WCI  32
ANGELUS OAKS     N/A     41  33  72 CALM      29.98S
PINE COVE        N/A     41  35  79 NW5       30.02R

$$

SOUTHERN DESERT INCLUDING THE COACHELLA VALLEY

CITY           SKY/WX    TMP DP  RH WIND       PRES   REMARKS
PALM SPRINGS   SUNNY     69  41  36 VRB6      29.99S
PALM DESERT      N/A     69  44  40 CALM      29.89S
THERMAL        SUNNY     72  38  29 CALM      29.98R
BLYTHE         MOSUNNY   68  37  32 W6        29.99R
IMPERIAL AP    SUNNY     71  27  19 SW14      30.00S
EL CENTRO NAS  MOSUNNY   73  15  11 W15       30.03R
YUMA AZ        SUNNY     68  41  37 W5        30.01
MEXICALI       SUNNY     72  12  10 W12       30.02R

$$

UPPER DESERT

CITY           SKY/WX    TMP DP  RH WIND       PRES   REMARKS
VICTORVILLE AP SUNNY     55  39  54 W15       30.08S
HESPERIA         N/A     54  42  63 W6        30.17S
PALMDALE       SUNNY     56  42  59 SW9       30.10R
LANCASTER      MOSUNNY   56  43  61 SW13      30.09S
EDWARDS AFB    MOSUNNY   56  42  59 SW20      30.07R
DAGGETT        SUNNY     60  40  47 W17       30.04S
29 PALMS N     SUNNY     62  37  39 W12       30.10R
NEEDLES        MOSUNNY   71  33  24 SW7       29.97S

$$

REGIONAL REPORTS

CITY           SKY/WX    TMP DP  RH WIND       PRES   REMARKS
SANTA BARBARA  PTSUNNY   57  54  89 E6        30.11S
SANDBERG       MOSUNNY   47  42  83 SW3       30.12R
LAS VEGAS NV   MOSUNNY   61  35  37 NW18G24   29.97R
PHOENIX AZ     CLOUDY    62  39  42 E9        30.01R
TIJUANA        PTSUNNY   57  46  67 N6        30.18R
ENSENADA NW      N/A     60  32  35 W6        30.11R

$$

OFFSHORE ISLANDS

CITY           SKY/WX    TMP DP  RH WIND       PRES   REMARKS
CATALINA ARPT  FOG       53  53 100 W12       30.14R VSB 1/4
SAN CLEMENTE I LGT RAIN  57  55  94 W8        30.16R
SAN NICOLAS IS CLOUDY   N/A N/A N/A W3        30.12S FOG

$$

MARINE AND OFFSHORE BUOY REPORTS

STATION/POSITION SKY/WX   TEMP    WIND        PRES    VSBY  SWELL
                          AIR SEA DIR/SP/G                  HT/PER/DIR
                          (F)     (DEG/KT/KT) (MB)    (MI)  (FT/S/D)
TANNER BANKS               59 59  280/  8/ 10 1020.7R         5/300/10
S CLEMENTE BASIN           59 60  320/ 10/ 12 1020.6R         3/270/14
SAN NICOLAS IS.               57                N/A           3/290/11
SO. S. ROSA ISLA           56 57  320/ 17/ 21 1019.7R         7/280/ 9
W. S. BARBARA CH           56 57  330/ 14/ 17 1020.0R         7/270/14
M. S. BARBARA CH                                N/A           5/260/10
S. MONICA BASIN            58 59  280/  2/  4 1019.9R         5/260/11
S PEDRO CHANNEL               60                N/A           2/270/13
CMP PENDLETON NS              59                N/A           2/210/14
OCEANSIDE OFFSHR              60                N/A           2/250/12
TORREY PINES OTR              61                N/A           3/260/13
POINT LOMA SOUTH              62                N/A           3/240/14

$$





USA.gov is the U.S. government's official web portal to all federal, state and local government web resources and services.